This is the latest recevied weather packets stored in our database for station/object OE-11272. If no packets are shown the sender has not sent any weather packets the latest 10 day(s).
| Time | Temp. | Humidity | Pressure | Rain* | Wind** | Luminosity | Snow |
|---|---|---|---|---|---|---|---|
| 1788095499 | 28.33° C | 44% | 1012.8 hPa | 0 mm | - | 700 W/m² | - |
| 1788095126 | 27.78° C | 46% | 1013 hPa | 0 mm | - | 718 W/m² | - |
| 1788094526 | 27.78° C | 46% | 1013.1 hPa | 0 mm | - | 718 W/m² | - |
| 1788093699 | 27.78° C | 48% | 1013.1 hPa | 0 mm | - | 731 W/m² | - |
| 1788093326 | 27.22° C | 54% | 1013.2 hPa | 0 mm | - | 743 W/m² | - |
| 1788092725 | 26.67° C | 54% | 1013.5 hPa | 0 mm | - | 762 W/m² | - |
| 1788091898 | 26.67° C | 52% | 1013.6 hPa | 0 mm | - | 768 W/m² | - |
| 1788091526 | 26.11° C | 53% | 1013.9 hPa | 0 mm | - | 750 W/m² | - |
| 1788090926 | 25° C | 58% | 1014.2 hPa | 0 mm | - | 537 W/m² | - |
| 1788090098 | 25° C | 58% | 1014.3 hPa | 0 mm | - | 262 W/m² | - |
| 1788089725 | 25° C | 58% | 1014.3 hPa | 0 mm | - | 687 W/m² | - |
| 1788089126 | 25.56° C | 59% | 1014.5 hPa | 0 mm | - | 425 W/m² | - |
| 1788088299 | 25.56° C | 56% | 1014.5 hPa | 0 mm | - | 593 W/m² | - |
| 1788087926 | 25.56° C | 56% | 1014.6 hPa | 0 mm | - | 675 W/m² | - |
| 1788087326 | 25.56° C | 53% | 1014.7 hPa | 0 mm | - | 793 W/m² | - |
| 1788086499 | 25° C | 54% | 1015 hPa | 0 mm | - | 781 W/m² | - |
| 1788086126 | 25° C | 52% | 1015.1 hPa | 0 mm | - | 781 W/m² | - |
| 1788085526 | 24.44° C | 57% | 1015.4 hPa | 0 mm | - | 768 W/m² | - |
| 1788084699 | 24.44° C | 57% | 1015.6 hPa | 0 mm | - | 756 W/m² | - |
| 1788084326 | 23.89° C | 56% | 1015.7 hPa | 0 mm | - | 737 W/m² | - |
| 1788083725 | 23.89° C | 58% | 1015.7 hPa | 0 mm | - | 725 W/m² | - |
| 1788082899 | 23.33° C | 59% | 1015.9 hPa | 0 mm | - | 712 W/m² | - |
| 1788082526 | 23.33° C | 66% | 1016.2 hPa | 0 mm | - | 700 W/m² | - |
| 1788081925 | 22.78° C | 68% | 1016.2 hPa | 0 mm | - | 687 W/m² | - |
| 1788081099 | 22.78° C | 63% | 1016.4 hPa | 0 mm | - | 668 W/m² | - |
* Rain latest hour (hover to see other rain measurements)
** Current wind speed in m/s (hover to see current wind gust speed)